Regional Weather Roundup
Issued by NWS

Home | Current Version | Previous Version | Text Only | Print | Product List | Glossary Off
Versions: 1 2 3 4 5 6 7 8 9 10 11 12 13 14 15 16 17 18 19 20 21 22 23 24 25 26 27 28 29 30 31 32 33 34 35 36 37 38 39 40 41 42 43 44 45 46 47 48 49 50

133
ASUS44 KMEG 272110
RWRTN
TENNESSEE HOURLY STATE WEATHER ROUNDUP
NATIONAL WEATHER SERVICE MEMPHIS TN
400 PM CDT THU JUL 27 2017

TNZ002-004-019-021-049-052-054-088>092-272200-
WEST TENNESSEE

CITY           SKY/WX    TMP DP  RH WIND       PRES   REMARKS
MEMPHIS INTL   PTSUNNY   91  75  59 SW10      29.93F HX 101
NWS MEMPHIS      N/A     94 N/A N/A MISG        N/A
JACKSON        CLOUDY    93  75  55 SW9       29.92F HX 104
SOMERVILLE       N/A     91  73  55 W9G16     29.92F HX 100
COVINGTON      CLOUDY    77  75  94 NW12G18   29.93R FOG
UNION CITY     SUNNY     88  77  70 W10       29.90F HX 100
BOLIVAR        MOSUNNY   91  73  55 SW9G16    29.93F HX 100
PARIS          SUNNY     88  75  66 VRB5      29.90F HX  97
HUNTINGDON     MOSUNNY   88  75  66 W14       29.92S HX  97
LEXINGTON      SUNNY     90  75  62 SW12      29.92F HX 100
SAVANNAH       MOSUNNY   82  75  78 E3        29.94F
$$

TNZ008-025-027-028-033-062-065-066-272200-
NORTH MIDDLE TENNESSEE

CITY           SKY/WX    TMP DP  RH WIND       PRES   REMARKS
NASHVILLE      CLOUDY    92  71  50 SW8       29.93F HX  98
PORTLAND       SUNNY     88  72  58 SW6       29.92F HX  94
CLARKSVILLE    CLOUDY    87  71  58 SW6       29.91F HX  93
SMYRNA         CLOUDY    92  73  53 SW8       29.93F HX 100
COOKEVILLE     MOSUNNY   91  72  52 W8G14     29.95F HX  98
GALLATIN       SUNNY     91  72  52 VRB6      29.94F HX  98
CROSSVILLE     CLOUDY    85  69  58 W9        30.01F
$$

TNZ061-075-076-078-094-096-097-272200-
SOUTH MIDDLE TENNESSEE

CITY           SKY/WX    TMP DP  RH WIND       PRES   REMARKS
FAYETTEVILLE   SUNNY     90  70  51 W7G13     29.97F HX  95
TULLAHOMA      SUNNY     86  70  58 W7        29.98F HX  90
WINCHESTER     MOSUNNY   91  70  49 VRB5      29.97F HX  97
MCMINNVILLE    SUNNY     90  73  58 W10       29.97S HX  98
COLUMBIA       MOSUNNY   91  70  49 VRB3G16   29.92F HX  97
SHELBYVILLE    MOSUNNY   90  72  55 W6        29.95F HX  96
$$

TNZ017-018-042-046-047-272200-
NORTHEAST TENNESSEE

CITY           SKY/WX    TMP DP  RH WIND       PRES   REMARKS
TRI CITIES     TSTM      73  70  90 NW21G33   30.04R VSB 1/2
ELIZABETHTON   CLOUDY    79  72  78 CALM      30.02F
$$

TNZ012-013-036-069-073-074-272200-
CENTRAL EAST TENNESSEE

CITY           SKY/WX    TMP DP  RH WIND       PRES   REMARKS
KNOXVILLE      LGT RAIN  75  70  84 CALM      29.97F
OAK RIDGE      CLOUDY    80  72  76 VRB5      29.97F
DOWNTOWN KNOXV SUNNY     73  72  94 W6        29.96F
GATLINBURG     MOSUNNY   82  66  57 W9G29     29.98F
MORRISTOWN     MOSUNNY   86  73  66 SW5       29.97F HX  93
JACKSBORO      SUNNY     84  73  70 VRB5      30.00F HX  91
$$

TNZ083-085-099-272200-
SOUTHEAST TENNESSEE

CITY           SKY/WX    TMP DP  RH WIND       PRES   REMARKS
CHATTANOOGA    CLOUDY    84  74  71 S6        29.98F HX  91
DAYTON         CLEAR     88  77  70 SW8       29.94F HX 100
$$

SKY/WX REPORTED AS FAIR MEANS FEW OR NO CLOUDS BELOW
12 THOUSAND FEET.





USA.gov is the U.S. government's official web portal to all federal, state and local government web resources and services.